User: anonymous   Login
Location: Melbourne
(37.8170°S, 144.9670°E)
Time: 14:51:46
(UTC+10:00)
Language:

ADEOS Rocket - Orbit

View from above orbital plane
View from above orbital plane
View from above satellite
View from above satellite

Ground track
Ground track

The orbit data is extracted from the following two-line orbital elements,

1 24279U 96046C   18114.37314209 -.00000043  00000-0 -75473-5 0  9993
2 24279  98.7689  25.1949 0299373 215.8138 259.0047 13.47104770 66142
Epoch (UTC): 24 April 2018 08:57:19
Eccentricity: 0.0299373
inclination: 98.7689°
perigee height: 859 km
apogee height: 1306 km
right ascension of ascending node: 25.1949°
argument of perigee: 215.8138°
revolutions per day: 13.47104770
mean anomaly at epoch: 259.0047°
orbit number at epoch: 6614

The dashed part of the orbit path shows where the satellite is in the earth's shadow,  

DLR